Time,TemperatureF,DewpointF,PressureIn,WindDirection,WindDirectionDegrees,WindSpeedMPH,WindSpeedGustMPH,Humidity,HourlyPrecipIn,Conditions,Clouds,dailyrainin,SoftwareType,DateUTC
2013-02-20 00:00:00,42.1,42.0,30.74,West,268,2.4,4.8,100,0.00,NA,NA,-99.99,BCS,2013-02-20 08:00:00,
2013-02-20 00:10:00,42.3,42.0,30.74,West,272,4.2,4.2,100,0.00,NA,NA,-99.99,BCS,2013-02-20 08:10:00,
2013-02-20 00:15:00,42.2,42.0,30.74,WSW,255,3.0,5.7,100,0.00,NA,NA,-99.99,BCS,2013-02-20 08:15:00,
2013-02-20 00:20:00,42.2,42.0,30.74,West,261,1.5,3.6,100,0.00,NA,NA,-99.99,BCS,2013-02-20 08:20:00,
2013-02-20 00:25:00,42.1,42.0,30.74,WNW,286,3.3,3.6,100,0.00,NA,NA,-99.99,BCS,2013-02-20 08:25:00,
2013-02-20 00:30:00,41.9,42.0,30.75,WSW,242,2.4,4.8,100,0.00,NA,NA,-99.99,BCS,2013-02-20 08:30:00,
2013-02-20 00:35:00,41.8,42.0,30.75,West,272,2.4,4.8,100,0.00,NA,NA,-99.99,BCS,2013-02-20 08:35:00,
2013-02-20 00:40:00,41.8,42.0,30.75,WNW,285,2.4,5.7,100,0.00,NA,NA,-99.99,BCS,2013-02-20 08:40:00,
2013-02-20 00:45:00,41.8,42.0,30.75,West,259,1.8,4.5,99,0.00,NA,NA,-99.99,BCS,2013-02-20 08:45:00,
2013-02-20 00:50:00,41.7,42.0,30.76,West,276,1.2,4.2,99,0.00,NA,NA,-99.99,BCS,2013-02-20 08:50:00,
2013-02-20 00:55:00,41.5,42.0,30.76,WSW,257,1.2,3.0,99,0.00,NA,NA,-99.99,BCS,2013-02-20 08:55:00,
2013-02-20 01:00:00,41.4,41.0,30.75,West,281,1.5,5.4,99,0.00,NA,NA,-99.99,BCS,2013-02-20 09:00:00,
2013-02-20 01:10:00,41.1,41.0,30.75,West,259,2.4,4.8,99,0.00,NA,NA,-99.99,BCS,2013-02-20 09:10:00,
2013-02-20 01:15:00,41.1,41.0,30.75,WNW,287,2.1,4.8,99,0.00,NA,NA,-99.99,BCS,2013-02-20 09:15:00,
2013-02-20 01:20:00,41.0,41.0,30.76,West,267,1.8,3.6,99,0.00,NA,NA,-99.99,BCS,2013-02-20 09:20:00,
2013-02-20 01:25:00,40.9,41.0,30.76,WNW,292,1.8,3.6,99,0.00,NA,NA,-99.99,BCS,2013-02-20 09:25:00,
2013-02-20 01:30:00,40.8,41.0,30.76,West,265,2.1,3.6,100,0.00,NA,NA,-99.99,BCS,2013-02-20 09:30:00,
2013-02-20 01:35:00,40.8,41.0,30.76,WSW,246,3.0,3.3,100,0.00,NA,NA,-99.99,BCS,2013-02-20 09:35:00,
2013-02-20 01:40:00,40.8,41.0,30.76,WSW,242,1.2,3.0,100,0.00,NA,NA,-99.99,BCS,2013-02-20 09:40:00,
2013-02-20 01:45:00,40.7,41.0,30.76,WSW,240,1.5,3.0,100,0.00,NA,NA,-99.99,BCS,2013-02-20 09:45:00,
2013-02-20 01:50:00,40.7,41.0,30.76,WSW,250,2.1,3.9,100,0.00,NA,NA,-99.99,BCS,2013-02-20 09:50:00,
2013-02-20 01:55:00,40.7,41.0,30.76,WSW,240,2.1,3.9,100,0.00,NA,NA,-99.99,BCS,2013-02-20 09:55:00,
2013-02-20 02:00:00,40.6,41.0,30.76,WSW,249,1.8,2.7,100,0.00,NA,NA,-99.99,BCS,2013-02-20 10:00:00,
2013-02-20 02:10:00,40.5,41.0,30.77,WSW,243,3.0,3.6,100,0.00,NA,NA,-99.99,BCS,2013-02-20 10:10:00,
2013-02-20 02:15:00,40.6,41.0,30.77,WSW,245,1.8,3.6,100,0.00,NA,NA,-99.99,BCS,2013-02-20 10:15:00,
2013-02-20 02:20:00,40.7,41.0,30.77,WSW,245,2.7,3.6,100,0.00,NA,NA,-99.99,BCS,2013-02-20 10:20:00,
2013-02-20 02:25:00,40.7,41.0,30.77,WSW,248,2.4,3.6,100,0.00,NA,NA,-99.99,BCS,2013-02-20 10:25:00,
2013-02-20 02:30:00,40.8,41.0,30.77,SW,235,2.4,3.3,100,0.00,NA,NA,-99.99,BCS,2013-02-20 10:30:00,
2013-02-20 02:35:00,40.7,41.0,30.77,WSW,238,1.8,3.3,99,0.00,NA,NA,-99.99,BCS,2013-02-20 10:35:00,
2013-02-20 02:45:00,40.3,40.0,30.78,West,259,1.8,3.9,99,0.00,NA,NA,-99.99,BCS,2013-02-20 10:45:00,
2013-02-20 02:50:00,40.3,40.0,30.78,WSW,251,2.1,3.3,99,0.00,NA,NA,-99.99,BCS,2013-02-20 10:50:00,
2013-02-20 02:55:00,40.2,40.0,30.78,West,275,1.5,2.4,99,0.00,NA,NA,-99.99,BCS,2013-02-20 10:55:00,
2013-02-20 03:00:00,40.2,40.0,30.78,West,274,2.1,3.0,99,0.00,NA,NA,-99.99,BCS,2013-02-20 11:00:00,
2013-02-20 03:10:00,40.2,40.0,30.78,West,266,2.1,3.0,99,0.00,NA,NA,-99.99,BCS,2013-02-20 11:10:00,
2013-02-20 03:15:00,40.2,40.0,30.78,West,262,3.0,3.6,99,0.00,NA,NA,-99.99,BCS,2013-02-20 11:15:00,
2013-02-20 03:20:00,40.3,40.0,30.78,WNW,285,2.1,3.9,100,0.00,NA,NA,-99.99,BCS,2013-02-20 11:20:00,
2013-02-20 03:30:00,40.6,41.0,30.78,West,279,2.4,7.2,100,0.00,NA,NA,-99.99,BCS,2013-02-20 11:30:00,
2013-02-20 03:35:00,40.7,41.0,30.79,West,276,2.4,5.4,100,0.00,NA,NA,-99.99,BCS,2013-02-20 11:35:00,
2013-02-20 03:40:00,40.8,41.0,30.79,WNW,282,3.0,6.3,100,0.00,NA,NA,-99.99,BCS,2013-02-20 11:40:00,
2013-02-20 03:45:00,40.8,41.0,30.79,WSW,250,2.4,6.0,100,0.00,NA,NA,-99.99,BCS,2013-02-20 11:45:00,
2013-02-20 03:55:00,40.8,41.0,30.80,West,278,2.1,4.5,100,0.00,NA,NA,-99.99,BCS,2013-02-20 11:55:00,
2013-02-20 04:00:00,40.7,41.0,30.80,West,280,3.0,4.2,99,0.00,NA,NA,-99.99,BCS,2013-02-20 12:00:00,
2013-02-20 04:05:00,40.6,41.0,30.80,West,275,3.0,3.9,99,0.00,NA,NA,-99.99,BCS,2013-02-20 12:05:00,
2013-02-20 04:10:00,40.6,41.0,30.80,WNW,297,2.4,4.2,99,0.00,NA,NA,-99.99,BCS,2013-02-20 12:10:00,
2013-02-20 04:15:00,40.7,41.0,30.80,West,264,2.1,5.1,100,0.00,NA,NA,-99.99,BCS,2013-02-20 12:15:00,
2013-02-20 04:20:00,40.8,41.0,30.80,WSW,255,2.4,3.3,100,0.00,NA,NA,-99.99,BCS,2013-02-20 12:20:00,
2013-02-20 04:25:00,40.8,41.0,30.80,West,262,2.7,3.6,100,0.00,NA,NA,-99.99,BCS,2013-02-20 12:25:00,
2013-02-20 04:30:00,40.9,41.0,30.80,West,275,2.1,3.6,100,0.00,NA,NA,-99.99,BCS,2013-02-20 12:30:00,
2013-02-20 04:35:00,41.0,41.0,30.80,WSW,257,1.5,3.3,100,0.00,NA,NA,-99.99,BCS,2013-02-20 12:35:00,
2013-02-20 04:40:00,41.1,41.0,30.80,WSW,256,1.5,2.4,100,0.00,NA,NA,-99.99,BCS,2013-02-20 12:40:00,
2013-02-20 04:45:00,41.1,41.0,30.80,WSW,253,2.1,2.4,100,0.00,NA,NA,-99.99,BCS,2013-02-20 12:45:00,
2013-02-20 04:50:00,41.1,41.0,30.81,WNW,288,1.2,2.7,100,0.00,NA,NA,-99.99,BCS,2013-02-20 12:50:00,
2013-02-20 05:00:00,41.1,41.0,30.81,SSW,213,1.8,2.1,99,0.00,NA,NA,-99.99,BCS,2013-02-20 13:00:00,
2013-02-20 05:10:00,40.8,41.0,30.81,SSW,211,1.2,1.8,99,0.00,NA,NA,-99.99,BCS,2013-02-20 13:10:00,
2013-02-20 05:15:00,40.7,41.0,30.82,SSW,211,0.6,2.1,99,0.00,NA,NA,-99.99,BCS,2013-02-20 13:15:00,
2013-02-20 05:20:00,40.5,41.0,30.82,SSW,211,0.9,1.8,99,0.00,NA,NA,-99.99,BCS,2013-02-20 13:20:00,
2013-02-20 05:25:00,40.3,40.0,30.82,SSW,201,1.2,1.8,99,0.00,NA,NA,-99.99,BCS,2013-02-20 13:25:00,
2013-02-20 05:30:00,40.0,40.0,30.82,SSW,201,1.2,2.1,99,0.00,NA,NA,-99.99,BCS,2013-02-20 13:30:00,
2013-02-20 05:35:00,39.7,40.0,30.82,WSW,252,1.8,2.1,99,0.00,NA,NA,-99.99,BCS,2013-02-20 13:35:00,
2013-02-20 05:40:00,39.7,40.0,30.82,WSW,256,1.2,2.1,100,0.00,NA,NA,-99.99,BCS,2013-02-20 13:40:00,
2013-02-20 05:45:00,39.8,40.0,30.82,WSW,255,1.2,1.8,100,0.00,NA,NA,-99.99,BCS,2013-02-20 13:45:00,
2013-02-20 05:50:00,40.0,40.0,30.82,WSW,257,0.0,1.8,100,0.00,NA,NA,-99.99,BCS,2013-02-20 13:50:00,
2013-02-20 05:55:00,39.6,40.0,30.83,NE,51,2.7,3.9,100,0.00,NA,NA,-99.99,BCS,2013-02-20 13:55:00,
2013-02-20 06:00:00,39.5,40.0,30.82,ENE,73,1.2,3.9,100,0.00,NA,NA,-99.99,BCS,2013-02-20 14:00:00,
2013-02-20 06:10:00,39.0,39.0,30.83,SE,131,0.3,1.5,100,0.00,NA,NA,-99.99,BCS,2013-02-20 14:10:00,
2013-02-20 06:20:00,39.0,39.0,30.83,ENE,75,0.9,2.1,100,0.00,NA,NA,-99.99,BCS,2013-02-20 14:20:00,
2013-02-20 06:25:00,38.8,39.0,30.83,ENE,74,0.6,1.2,100,0.00,NA,NA,-99.99,BCS,2013-02-20 14:25:00,
2013-02-20 06:30:00,38.5,39.0,30.83,ENE,74,0.0,0.9,100,0.00,NA,NA,-99.99,BCS,2013-02-20 14:30:00,
2013-02-20 06:35:00,38.3,38.0,30.83,SE,130,0.0,1.8,100,0.00,NA,NA,-99.99,BCS,2013-02-20 14:35:00,
2013-02-20 06:40:00,38.2,38.0,30.84,SSE,162,0.6,1.8,100,0.00,NA,NA,-99.99,BCS,2013-02-20 14:40:00,
2013-02-20 06:45:00,38.1,38.0,30.84,SSE,162,0.0,1.8,100,0.00,NA,NA,-99.99,BCS,2013-02-20 14:45:00,
2013-02-20 06:50:00,38.1,38.0,30.84,SSE,161,1.2,1.2,100,0.00,NA,NA,-99.99,BCS,2013-02-20 14:50:00,
2013-02-20 07:00:00,37.9,38.0,30.84,SSE,162,0.0,0.3,100,0.00,NA,NA,-99.99,BCS,2013-02-20 15:00:00,
2013-02-20 07:05:00,37.6,38.0,30.85,SSE,162,0.0,0.9,100,0.00,NA,NA,-99.99,BCS,2013-02-20 15:05:00,
2013-02-20 07:10:00,37.7,38.0,30.85,SSE,162,0.0,0.9,100,0.00,NA,NA,-99.99,BCS,2013-02-20 15:10:00,
2013-02-20 07:15:00,37.9,38.0,30.84,SSE,162,0.0,0.6,100,0.00,NA,NA,-99.99,BCS,2013-02-20 15:15:00,
2013-02-20 07:20:00,38.2,38.0,30.85,SSE,163,0.0,0.6,100,0.00,NA,NA,-99.99,BCS,2013-02-20 15:20:00,
2013-02-20 07:30:00,38.3,38.0,30.85,SSE,163,0.0,0.0,100,0.00,NA,NA,-99.99,BCS,2013-02-20 15:30:00,
2013-02-20 07:35:00,38.3,38.0,30.86,SSE,163,0.0,0.0,100,0.00,NA,NA,-99.99,BCS,2013-02-20 15:35:00,
2013-02-20 07:40:00,38.4,38.0,30.86,SSE,165,0.6,1.5,100,0.00,NA,NA,-99.99,BCS,2013-02-20 15:40:00,
2013-02-20 07:45:00,38.6,39.0,30.86,SSE,165,0.0,1.5,100,0.00,NA,NA,-99.99,BCS,2013-02-20 15:45:00,
2013-02-20 07:50:00,38.9,39.0,30.86,SSE,165,0.0,0.0,100,0.00,NA,NA,-99.99,BCS,2013-02-20 15:50:00,
2013-02-20 07:55:00,39.4,39.0,30.87,SSW,205,0.9,2.1,100,0.00,NA,NA,-99.99,BCS,2013-02-20 15:55:00,
2013-02-20 08:05:00,41.2,41.0,30.87,WNW,291,0.3,2.4,100,0.00,NA,NA,-99.99,BCS,2013-02-20 16:05:00,
2013-02-20 08:10:00,41.8,42.0,30.87,NNW,329,0.0,1.8,100,0.00,NA,NA,-99.99,BCS,2013-02-20 16:10:00,
2013-02-20 08:15:00,42.3,42.0,30.87,NNW,337,0.0,1.8,100,0.00,NA,NA,-99.99,BCS,2013-02-20 16:15:00,
2013-02-20 08:20:00,43.0,43.0,30.87,North,3,0.0,2.7,100,0.00,NA,NA,-99.99,BCS,2013-02-20 16:20:00,
2013-02-20 08:25:00,43.2,43.0,30.88,North,357,1.5,2.7,100,0.00,NA,NA,-99.99,BCS,2013-02-20 16:25:00,
2013-02-20 08:30:00,43.6,44.0,30.88,NNE,12,0.9,2.7,100,0.00,NA,NA,-99.99,BCS,2013-02-20 16:30:00,
2013-02-20 08:35:00,44.0,44.0,30.88,NE,35,0.9,2.4,100,0.00,NA,NA,-99.99,BCS,2013-02-20 16:35:00,
2013-02-20 08:40:00,44.5,44.0,30.88,NNW,332,2.4,4.2,100,0.00,NA,NA,-99.99,BCS,2013-02-20 16:40:00,
2013-02-20 08:45:00,45.1,45.0,30.89,NNW,336,0.9,4.2,100,0.00,NA,NA,-99.99,BCS,2013-02-20 16:45:00,
2013-02-20 08:50:00,45.7,46.0,30.89,WNW,297,0.6,3.3,100,0.00,NA,NA,-99.99,BCS,2013-02-20 16:50:00,
2013-02-20 08:55:00,46.2,46.0,30.89,West,279,3.0,4.5,100,0.00,NA,NA,-99.99,BCS,2013-02-20 16:55:00,
2013-02-20 09:00:00,46.7,47.0,30.89,North,351,0.6,3.3,100,0.00,NA,NA,-99.99,BCS,2013-02-20 17:00:00,
2013-02-20 09:05:00,47.0,47.0,30.88,North,6,1.5,3.9,100,0.00,NA,NA,-99.99,BCS,2013-02-20 17:05:00,
2013-02-20 09:15:00,47.8,47.0,30.89,NNW,329,2.7,3.0,98,0.00,NA,NA,-99.99,BCS,2013-02-20 17:15:00,
2013-02-20 09:20:00,47.9,47.0,30.89,WNW,297,4.2,6.0,96,0.00,NA,NA,-99.99,BCS,2013-02-20 17:20:00,
2013-02-20 09:25:00,48.0,46.0,30.89,NNW,329,0.9,5.7,95,0.00,NA,NA,-99.99,BCS,2013-02-20 17:25:00,
2013-02-20 09:30:00,48.3,46.0,30.89,NW,310,3.0,4.8,93,0.00,NA,NA,-99.99,BCS,2013-02-20 17:30:00,
2013-02-20 09:35:00,48.6,47.0,30.89,NNW,328,2.1,6.9,93,0.00,NA,NA,-99.99,BCS,2013-02-20 17:35:00,
2013-02-20 09:40:00,49.0,47.0,30.89,NNW,343,1.2,6.9,92,0.00,NA,NA,-99.99,BCS,2013-02-20 17:40:00,
2013-02-20 09:45:00,49.6,48.0,30.89,WNW,290,3.6,5.1,91,0.00,NA,NA,-99.99,BCS,2013-02-20 17:45:00,
2013-02-20 09:50:00,49.8,47.0,30.89,West,264,2.4,6.6,90,0.00,NA,NA,-99.99,BCS,2013-02-20 17:50:00,
2013-02-20 09:55:00,50.0,47.0,30.90,West,277,3.3,7.5,88,0.00,NA,NA,-99.99,BCS,2013-02-20 17:55:00,
2013-02-20 10:00:00,49.9,46.0,30.90,West,281,2.1,7.5,86,0.00,NA,NA,-99.99,BCS,2013-02-20 18:00:00,
2013-02-20 10:10:00,50.6,47.0,30.90,NW,322,4.2,5.7,86,0.00,NA,NA,-99.99,BCS,2013-02-20 18:10:00,
2013-02-20 10:15:00,51.1,46.0,30.90,NNW,336,2.7,4.8,85,0.00,NA,NA,-99.99,BCS,2013-02-20 18:15:00,
2013-02-20 10:20:00,51.6,47.0,30.90,WSW,247,3.3,5.4,85,0.00,NA,NA,-99.99,BCS,2013-02-20 18:20:00,
2013-02-20 10:25:00,51.7,47.0,30.90,West,274,2.7,6.0,83,0.00,NA,NA,-99.99,BCS,2013-02-20 18:25:00,
2013-02-20 10:30:00,52.1,47.0,30.90,WNW,282,6.3,6.3,82,0.00,NA,NA,-99.99,BCS,2013-02-20 18:30:00,
2013-02-20 10:35:00,52.2,46.0,30.90,NNW,338,3.0,7.5,80,0.00,NA,NA,-99.99,BCS,2013-02-20 18:35:00,
2013-02-20 10:40:00,52.7,47.0,30.90,West,270,3.0,7.5,79,0.00,NA,NA,-99.99,BCS,2013-02-20 18:40:00,
2013-02-20 10:45:00,53.1,46.0,30.90,NNW,334,5.7,6.6,78,0.00,NA,NA,-99.99,BCS,2013-02-20 18:45:00,
2013-02-20 10:50:00,52.8,45.0,30.90,NW,310,4.2,6.9,76,0.00,NA,NA,-99.99,BCS,2013-02-20 18:50:00,
2013-02-20 11:00:00,53.9,45.0,30.90,NNW,338,3.0,8.1,72,0.00,NA,NA,-99.99,BCS,2013-02-20 19:00:00,
2013-02-20 11:10:00,54.4,45.0,30.90,North,354,2.1,6.3,68,0.00,NA,NA,-99.99,BCS,2013-02-20 19:10:00,
2013-02-20 11:20:00,54.1,42.0,30.90,NNW,336,5.1,9.3,63,0.00,NA,NA,-99.99,BCS,2013-02-20 19:20:00,
2013-02-20 11:25:00,54.7,41.0,30.90,WNW,299,1.8,9.0,63,0.00,NA,NA,-99.99,BCS,2013-02-20 19:25:00,
2013-02-20 11:30:00,55.3,42.0,30.90,WSW,248,2.1,7.8,62,0.00,NA,NA,-99.99,BCS,2013-02-20 19:30:00,
2013-02-20 11:35:00,55.2,40.0,30.90,NW,320,6.3,9.3,57,0.00,NA,NA,-99.99,BCS,2013-02-20 19:35:00,
2013-02-20 11:40:00,55.7,41.0,30.90,West,275,3.6,9.3,58,0.00,NA,NA,-99.99,BCS,2013-02-20 19:40:00,
2013-02-20 11:45:00,55.9,40.0,30.90,North,3,8.4,8.4,56,0.00,NA,NA,-99.99,BCS,2013-02-20 19:45:00,
2013-02-20 11:50:00,56.3,40.0,30.90,North,350,5.7,8.7,56,0.00,NA,NA,-99.99,BCS,2013-02-20 19:50:00,
2013-02-20 11:55:00,56.1,39.0,30.90,NNW,329,7.2,11.4,54,0.00,NA,NA,-99.99,BCS,2013-02-20 19:55:00,
2013-02-20 12:00:00,56.6,41.0,30.90,WSW,237,5.4,11.4,55,0.00,NA,NA,-99.99,BCS,2013-02-20 20:00:00,
2013-02-20 12:05:00,56.9,40.0,30.90,North,352,4.8,9.3,52,0.00,NA,NA,-99.99,BCS,2013-02-20 20:05:00,
2013-02-20 12:10:00,57.3,40.0,30.89,North,356,3.6,11.1,52,0.00,NA,NA,-99.99,BCS,2013-02-20 20:10:00,
2013-02-20 12:15:00,57.4,40.0,30.89,North,358,3.9,9.3,53,0.00,NA,NA,-99.99,BCS,2013-02-20 20:15:00,
2013-02-20 12:20:00,57.1,39.0,30.89,SW,231,4.8,11.7,52,0.00,NA,NA,-99.99,BCS,2013-02-20 20:20:00,
2013-02-20 12:25:00,57.6,39.0,30.89,NW,314,2.4,14.7,52,0.00,NA,NA,-99.99,BCS,2013-02-20 20:25:00,
2013-02-20 12:35:00,58.0,40.0,30.89,NW,320,9.3,9.3,51,0.00,NA,NA,-99.99,BCS,2013-02-20 20:35:00,
2013-02-20 12:40:00,58.2,40.0,30.89,WNW,298,4.5,10.2,53,0.00,NA,NA,-99.99,BCS,2013-02-20 20:40:00,
2013-02-20 12:50:00,57.5,40.0,30.89,NNW,334,9.0,13.5,51,0.00,NA,NA,-99.99,BCS,2013-02-20 20:50:00,
2013-02-20 12:55:00,57.4,38.0,30.89,NW,325,6.9,12.3,50,0.00,NA,NA,-99.99,BCS,2013-02-20 20:55:00,
2013-02-20 13:05:00,58.1,40.0,30.89,North,351,3.6,10.2,51,0.00,NA,NA,-99.99,BCS,2013-02-20 21:05:00,
2013-02-20 13:10:00,58.0,39.0,30.89,WNW,298,8.1,12.3,50,0.00,NA,NA,-99.99,BCS,2013-02-20 21:10:00,
2013-02-20 13:15:00,58.5,40.0,30.88,North,11,3.9,12.3,50,0.00,NA,NA,-99.99,BCS,2013-02-20 21:15:00,
2013-02-20 13:20:00,58.7,41.0,30.88,NNW,346,2.1,9.6,51,0.00,NA,NA,-99.99,BCS,2013-02-20 21:20:00,
2013-02-20 13:25:00,59.1,41.0,30.88,NNW,333,1.2,8.7,51,0.00,NA,NA,-99.99,BCS,2013-02-20 21:25:00,
2013-02-20 13:30:00,58.6,40.0,30.88,NNW,348,5.7,10.8,51,0.00,NA,NA,-99.99,BCS,2013-02-20 21:30:00,
2013-02-20 13:35:00,59.0,41.0,30.88,NNW,331,5.1,10.8,52,0.00,NA,NA,-99.99,BCS,2013-02-20 21:35:00,
2013-02-20 13:40:00,58.4,40.0,30.88,North,359,6.3,9.6,50,0.00,NA,NA,-99.99,BCS,2013-02-20 21:40:00,
2013-02-20 13:45:00,58.2,39.0,30.88,NNE,20,6.3,13.2,50,0.00,NA,NA,-99.99,BCS,2013-02-20 21:45:00,
2013-02-20 13:50:00,58.8,41.0,30.88,SSW,212,2.1,13.2,51,0.00,NA,NA,-99.99,BCS,2013-02-20 21:50:00,
2013-02-20 14:00:00,58.6,39.0,30.87,NW,326,10.5,11.7,46,0.00,NA,NA,-99.99,BCS,2013-02-20 22:00:00,
2013-02-20 14:05:00,59.0,38.0,30.87,WNW,300,4.2,12.3,46,0.00,NA,NA,-99.99,BCS,2013-02-20 22:05:00,
2013-02-20 14:10:00,59.7,39.0,30.87,NW,315,3.6,8.4,46,0.00,NA,NA,-99.99,BCS,2013-02-20 22:10:00,
2013-02-20 14:15:00,59.1,38.0,30.87,North,6,8.4,10.5,46,0.00,NA,NA,-99.99,BCS,2013-02-20 22:15:00,
2013-02-20 14:20:00,58.7,38.0,30.86,North,360,5.4,12.0,46,0.00,NA,NA,-99.99,BCS,2013-02-20 22:20:00,
2013-02-20 14:25:00,59.3,39.0,30.86,North,2,7.2,10.2,48,0.00,NA,NA,-99.99,BCS,2013-02-20 22:25:00,
2013-02-20 14:30:00,59.3,40.0,30.87,North,358,8.1,8.4,49,0.00,NA,NA,-99.99,BCS,2013-02-20 22:30:00,
2013-02-20 14:35:00,60.0,42.0,30.86,NE,40,1.2,8.4,51,0.00,NA,NA,-99.99,BCS,2013-02-20 22:35:00,
2013-02-20 14:40:00,60.3,42.0,30.86,NW,306,3.3,8.4,52,0.00,NA,NA,-99.99,BCS,2013-02-20 22:40:00,
2013-02-20 14:45:00,60.6,42.0,30.86,WSW,255,6.3,11.7,49,0.00,NA,NA,-99.99,BCS,2013-02-20 22:45:00,
2013-02-20 14:50:00,60.6,41.0,30.86,WSW,240,1.5,10.5,47,0.00,NA,NA,-99.99,BCS,2013-02-20 22:50:00,
2013-02-20 14:55:00,60.6,41.0,30.86,NW,320,4.8,8.7,48,0.00,NA,NA,-99.99,BCS,2013-02-20 22:55:00,
2013-02-20 15:00:00,60.3,40.0,30.86,WSW,251,4.5,11.7,47,0.00,NA,NA,-99.99,BCS,2013-02-20 23:00:00,
2013-02-20 15:10:00,60.3,42.0,30.87,WSW,255,3.3,10.2,52,0.00,NA,NA,-99.99,BCS,2013-02-20 23:10:00,
2013-02-20 15:15:00,60.3,43.0,30.87,WSW,248,4.5,7.5,54,0.00,NA,NA,-99.99,BCS,2013-02-20 23:15:00,
2013-02-20 15:20:00,60.2,44.0,30.87,NW,307,9.3,13.2,56,0.00,NA,NA,-99.99,BCS,2013-02-20 23:20:00,
2013-02-20 15:30:00,59.5,45.0,30.87,WSW,247,3.0,6.9,59,0.00,NA,NA,-99.99,BCS,2013-02-20 23:30:00,
2013-02-20 15:35:00,59.1,44.0,30.87,West,269,3.0,9.0,59,0.00,NA,NA,-99.99,BCS,2013-02-20 23:35:00,
2013-02-20 15:45:00,59.2,44.0,30.87,SW,232,1.5,8.7,58,0.00,NA,NA,-99.99,BCS,2013-02-20 23:45:00,
2013-02-20 15:50:00,59.3,44.0,30.87,SSW,207,3.3,6.6,58,0.00,NA,NA,-99.99,BCS,2013-02-20 23:50:00,
2013-02-20 15:55:00,58.7,44.0,30.87,West,272,2.7,8.4,57,0.00,NA,NA,-99.99,BCS,2013-02-20 23:55:00,
2013-02-20 16:00:00,58.1,43.0,30.87,SSW,207,3.6,13.5,58,0.00,NA,NA,-99.99,BCS,2013-02-21 00:00:00,
2013-02-20 16:10:00,57.3,43.0,30.88,SSW,199,3.0,6.9,61,0.00,NA,NA,-99.99,BCS,2013-02-21 00:10:00,
2013-02-20 16:15:00,57.1,43.0,30.88,WSW,243,3.3,12.0,61,0.00,NA,NA,-99.99,BCS,2013-02-21 00:15:00,
2013-02-20 16:20:00,56.8,44.0,30.88,WSW,250,3.3,12.0,63,0.00,NA,NA,-99.99,BCS,2013-02-21 00:20:00,
2013-02-20 16:25:00,56.8,45.0,30.88,WSW,242,4.2,5.7,63,0.00,NA,NA,-99.99,BCS,2013-02-21 00:25:00,
2013-02-20 16:35:00,56.6,45.0,30.88,WSW,252,2.4,5.1,65,0.00,NA,NA,-99.99,BCS,2013-02-21 00:35:00,
2013-02-20 16:40:00,56.4,44.0,30.88,WSW,256,3.3,8.1,65,0.00,NA,NA,-99.99,BCS,2013-02-21 00:40:00,
2013-02-20 16:45:00,56.0,44.0,30.89,WSW,239,4.2,7.8,65,0.00,NA,NA,-99.99,BCS,2013-02-21 00:45:00,
2013-02-20 16:50:00,55.7,45.0,30.89,NW,311,5.1,9.6,66,0.00,NA,NA,-99.99,BCS,2013-02-21 00:50:00,
2013-02-20 16:55:00,55.4,44.0,30.89,West,281,6.6,11.7,67,0.00,NA,NA,-99.99,BCS,2013-02-21 00:55:00,
2013-02-20 17:00:00,55.4,44.0,30.89,West,280,4.2,9.3,68,0.00,NA,NA,-99.99,BCS,2013-02-21 01:00:00,
2013-02-20 17:05:00,55.0,45.0,30.89,WSW,254,4.5,11.7,68,0.00,NA,NA,-99.99,BCS,2013-02-21 01:05:00,
2013-02-20 17:10:00,54.7,45.0,30.89,West,259,6.0,10.2,69,0.00,NA,NA,-99.99,BCS,2013-02-21 01:10:00,
2013-02-20 17:15:00,54.5,45.0,30.89,West,264,3.3,8.7,70,0.00,NA,NA,-99.99,BCS,2013-02-21 01:15:00,
2013-02-20 17:20:00,54.4,45.0,30.89,WSW,251,3.3,9.6,71,0.00,NA,NA,-99.99,BCS,2013-02-21 01:20:00,
2013-02-20 17:25:00,54.2,45.0,30.89,West,271,2.7,7.5,72,0.00,NA,NA,-99.99,BCS,2013-02-21 01:25:00,
2013-02-20 17:30:00,53.9,45.0,30.89,West,260,4.8,8.4,72,0.00,NA,NA,-99.99,BCS,2013-02-21 01:30:00,
2013-02-20 17:35:00,53.4,45.0,30.89,WSW,240,1.5,8.4,73,0.00,NA,NA,-99.99,BCS,2013-02-21 01:35:00,
2013-02-20 17:45:00,52.6,45.0,30.89,WNW,295,4.2,7.2,75,0.00,NA,NA,-99.99,BCS,2013-02-21 01:45:00,
2013-02-20 17:50:00,52.3,44.0,30.90,WSW,252,3.6,6.0,75,0.00,NA,NA,-99.99,BCS,2013-02-21 01:50:00,
2013-02-20 17:55:00,52.0,45.0,30.90,West,269,3.3,6.0,76,0.00,NA,NA,-99.99,BCS,2013-02-21 01:55:00,
2013-02-20 18:00:00,51.6,45.0,30.90,West,266,3.9,9.0,77,0.00,NA,NA,-99.99,BCS,2013-02-21 02:00:00,
2013-02-20 18:10:00,51.1,45.0,30.90,WSW,249,3.0,6.3,79,0.00,NA,NA,-99.99,BCS,2013-02-21 02:10:00,
2013-02-20 18:15:00,50.9,45.0,30.91,WNW,288,5.1,7.5,80,0.00,NA,NA,-99.99,BCS,2013-02-21 02:15:00,
2013-02-20 18:20:00,50.7,45.0,30.91,WSW,245,3.3,11.4,81,0.00,NA,NA,-99.99,BCS,2013-02-21 02:20:00,
2013-02-20 18:25:00,50.5,45.0,30.91,West,260,5.1,7.8,82,0.00,NA,NA,-99.99,BCS,2013-02-21 02:25:00,
2013-02-20 18:30:00,50.4,45.0,30.91,NW,322,4.2,7.8,82,0.00,NA,NA,-99.99,BCS,2013-02-21 02:30:00,
2013-02-20 18:35:00,50.3,45.0,30.92,WSW,252,5.1,9.0,83,0.00,NA,NA,-99.99,BCS,2013-02-21 02:35:00,
2013-02-20 18:40:00,50.2,45.0,30.92,West,264,3.6,6.9,83,0.00,NA,NA,-99.99,BCS,2013-02-21 02:40:00,
2013-02-20 18:45:00,50.1,45.0,30.92,WSW,246,2.1,6.3,83,0.00,NA,NA,-99.99,BCS,2013-02-21 02:45:00,
2013-02-20 18:50:00,49.9,45.0,30.92,NW,311,1.8,8.1,84,0.00,NA,NA,-99.99,BCS,2013-02-21 02:50:00,
2013-02-20 19:00:00,49.5,46.0,30.92,WSW,249,1.8,4.8,85,0.00,NA,NA,-99.99,BCS,2013-02-21 03:00:00,
2013-02-20 19:10:00,49.3,45.0,30.92,SSW,200,0.9,2.1,87,0.00,NA,NA,-99.99,BCS,2013-02-21 03:10:00,
2013-02-20 19:15:00,49.1,45.0,30.92,SSW,207,1.5,2.1,87,0.00,NA,NA,-99.99,BCS,2013-02-21 03:15:00,
2013-02-20 19:20:00,48.9,45.0,30.92,WSW,238,1.5,1.8,87,0.00,NA,NA,-99.99,BCS,2013-02-21 03:20:00,
2013-02-20 19:25:00,48.7,45.0,30.93,WSW,248,2.7,4.2,88,0.00,NA,NA,-99.99,BCS,2013-02-21 03:25:00,
2013-02-20 19:35:00,48.9,45.0,30.92,WNW,283,1.8,4.2,87,0.00,NA,NA,-99.99,BCS,2013-02-21 03:35:00,
2013-02-20 19:40:00,48.9,45.0,30.92,West,281,3.3,5.4,86,0.00,NA,NA,-99.99,BCS,2013-02-21 03:40:00,
2013-02-20 19:45:00,48.8,45.0,30.92,West,269,2.7,5.7,85,0.00,NA,NA,-99.99,BCS,2013-02-21 03:45:00,
2013-02-20 19:55:00,48.9,44.0,30.93,WSW,247,2.7,5.4,84,0.00,NA,NA,-99.99,BCS,2013-02-21 03:55:00,
2013-02-20 20:00:00,49.1,44.0,30.93,WSW,244,1.8,5.4,83,0.00,NA,NA,-99.99,BCS,2013-02-21 04:00:00,
2013-02-20 20:10:00,49.0,44.0,30.94,WNW,284,2.1,3.6,82,0.00,NA,NA,-99.99,BCS,2013-02-21 04:10:00,
2013-02-20 20:15:00,48.9,44.0,30.94,SW,219,1.5,3.0,82,0.00,NA,NA,-99.99,BCS,2013-02-21 04:15:00,
2013-02-20 20:20:00,49.0,44.0,30.94,WSW,242,1.5,4.5,82,0.00,NA,NA,-99.99,BCS,2013-02-21 04:20:00,
2013-02-20 20:25:00,48.9,44.0,30.95,SW,223,1.5,3.0,82,0.00,NA,NA,-99.99,BCS,2013-02-21 04:25:00,
2013-02-20 20:30:00,48.8,43.0,30.95,SW,214,1.5,2.1,82,0.00,NA,NA,-99.99,BCS,2013-02-21 04:30:00,
2013-02-20 20:35:00,48.5,44.0,30.95,SSW,205,1.5,2.7,82,0.00,NA,NA,-99.99,BCS,2013-02-21 04:35:00,
2013-02-20 20:40:00,48.3,43.0,30.95,South,188,1.2,2.7,83,0.00,NA,NA,-99.99,BCS,2013-02-21 04:40:00,
2013-02-20 20:45:00,48.0,43.0,30.95,WSW,247,1.8,2.4,83,0.00,NA,NA,-99.99,BCS,2013-02-21 04:45:00,
2013-02-20 20:50:00,47.8,43.0,30.95,SSW,199,1.8,2.7,84,0.00,NA,NA,-99.99,BCS,2013-02-21 04:50:00,
2013-02-20 20:55:00,47.7,44.0,30.95,SSW,203,1.2,2.7,85,0.00,NA,NA,-99.99,BCS,2013-02-21 04:55:00,
2013-02-20 21:00:00,47.7,44.0,30.95,SSW,196,1.2,2.1,85,0.00,NA,NA,-99.99,BCS,2013-02-21 05:00:00,
2013-02-20 21:05:00,47.5,44.0,30.96,SSW,201,1.5,2.4,85,0.00,NA,NA,-99.99,BCS,2013-02-21 05:05:00,
2013-02-20 21:10:00,47.3,43.0,30.96,SSW,211,2.1,2.1,86,0.00,NA,NA,-99.99,BCS,2013-02-21 05:10:00,
2013-02-20 21:15:00,47.5,43.0,30.96,SSW,209,2.4,3.9,87,0.00,NA,NA,-99.99,BCS,2013-02-21 05:15:00,
2013-02-20 21:20:00,47.4,43.0,30.96,SSW,209,1.8,3.0,87,0.00,NA,NA,-99.99,BCS,2013-02-21 05:20:00,
2013-02-20 21:25:00,47.5,44.0,30.95,SSW,209,1.8,2.7,88,0.00,NA,NA,-99.99,BCS,2013-02-21 05:25:00,
2013-02-20 21:30:00,47.5,44.0,30.96,SSW,207,1.2,2.7,88,0.00,NA,NA,-99.99,BCS,2013-02-21 05:30:00,
2013-02-20 21:35:00,47.6,45.0,30.96,South,190,1.2,2.4,88,0.00,NA,NA,-99.99,BCS,2013-02-21 05:35:00,
2013-02-20 21:40:00,47.4,44.0,30.96,SSW,192,0.9,1.8,88,0.00,NA,NA,-99.99,BCS,2013-02-21 05:40:00,
2013-02-20 21:45:00,46.9,44.0,30.96,SSW,196,1.2,2.1,88,0.00,NA,NA,-99.99,BCS,2013-02-21 05:45:00,
2013-02-20 21:50:00,46.6,44.0,30.96,SSW,197,0.3,1.2,89,0.00,NA,NA,-99.99,BCS,2013-02-21 05:50:00,
2013-02-20 21:55:00,46.3,43.0,30.96,SSW,203,0.3,2.1,90,0.00,NA,NA,-99.99,BCS,2013-02-21 05:55:00,
2013-02-20 22:05:00,45.9,44.0,30.97,SSW,205,0.0,0.9,91,0.00,NA,NA,-99.99,BCS,2013-02-21 06:05:00,
2013-02-20 22:10:00,45.7,44.0,30.97,SSW,205,0.9,0.9,92,0.00,NA,NA,-99.99,BCS,2013-02-21 06:10:00,
2013-02-20 22:15:00,45.5,44.0,30.97,NW,304,0.3,1.8,93,0.00,NA,NA,-99.99,BCS,2013-02-21 06:15:00,
2013-02-20 22:20:00,45.1,43.0,30.97,South,180,0.3,2.1,93,0.00,NA,NA,-99.99,BCS,2013-02-21 06:20:00,
2013-02-20 22:25:00,44.9,43.0,30.97,South,189,0.0,1.5,94,0.00,NA,NA,-99.99,BCS,2013-02-21 06:25:00,
2013-02-20 22:30:00,44.7,44.0,30.97,NW,318,0.9,1.5,95,0.00,NA,NA,-99.99,BCS,2013-02-21 06:30:00,
2013-02-20 22:35:00,44.6,44.0,30.97,WNW,297,1.2,1.8,96,0.00,NA,NA,-99.99,BCS,2013-02-21 06:35:00,
2013-02-20 22:40:00,44.6,44.0,30.97,West,270,0.9,1.5,97,0.00,NA,NA,-99.99,BCS,2013-02-21 06:40:00,
2013-02-20 22:45:00,44.9,44.0,30.97,South,187,0.0,2.4,97,0.00,NA,NA,-99.99,BCS,2013-02-21 06:45:00,
2013-02-20 22:50:00,44.9,44.0,30.97,WSW,248,1.5,3.0,98,0.00,NA,NA,-99.99,BCS,2013-02-21 06:50:00,
2013-02-20 22:55:00,44.9,44.0,30.97,WSW,253,2.1,2.1,98,0.00,NA,NA,-99.99,BCS,2013-02-21 06:55:00,
2013-02-20 23:00:00,45.0,45.0,30.97,SSW,212,0.6,2.1,99,0.00,NA,NA,-99.99,BCS,2013-02-21 07:00:00,
2013-02-20 23:05:00,44.9,45.0,30.97,West,281,1.5,2.1,99,0.00,NA,NA,-99.99,BCS,2013-02-21 07:05:00,
2013-02-20 23:10:00,45.0,45.0,30.97,West,267,1.2,1.8,100,0.00,NA,NA,-99.99,BCS,2013-02-21 07:10:00,
2013-02-20 23:15:00,45.0,45.0,30.97,WSW,244,0.9,1.8,100,0.00,NA,NA,-99.99,BCS,2013-02-21 07:15:00,
2013-02-20 23:25:00,45.2,45.0,30.97,SSW,204,0.9,2.4,100,0.00,NA,NA,-99.99,BCS,2013-02-21 07:25:00,
2013-02-20 23:30:00,45.2,45.0,30.96,SSW,204,0.9,1.2,100,0.00,NA,NA,-99.99,BCS,2013-02-21 07:30:00,
2013-02-20 23:35:00,45.4,45.0,30.96,SSW,193,0.9,2.4,100,0.00,NA,NA,-99.99,BCS,2013-02-21 07:35:00,
2013-02-20 23:40:00,45.2,45.0,30.96,SW,218,0.3,2.4,100,0.00,NA,NA,-99.99,BCS,2013-02-21 07:40:00,
2013-02-20 23:45:00,45.0,45.0,30.97,SW,216,1.5,2.4,100,0.00,NA,NA,-99.99,BCS,2013-02-21 07:45:00,
2013-02-20 23:55:00,44.4,44.0,30.97,WNW,296,1.2,2.1,100,0.00,NA,NA,-99.99,BCS,2013-02-21 07:55:00,